Regional Weather Roundup
Issued by NWS

Home | Current Version | Previous Version | Text Only | Print | Product List | Glossary Off
Versions: 1 2 3 4 5 6 7 8 9 10 11 12 13 14 15 16 17 18 19 20 21 22 23 24 25 26 27

000
ASUS45 KSLC 232210
RWRUT

UTAH REGIONAL WEATHER ROUNDUP
NATIONAL WEATHER SERVICE SALT LAKE CITY UT
400 PM MDT MON OCT 23 2017

UTZ001>011-023>025-232300-

NORTHERN UTAH

CITY           SKY/WX    TMP DP  RH WIND       PRES   REMARKS
BRIGHAM CITY   MOSUNNY   61  25  25 N5        30.59R
DUGWAY         PTSUNNY   67  35  31 NE8       30.63F
HILL AFB       MOSUNNY   60  29  31 NW6       30.58F
LOGAN          MOSUNNY   61  31  32 NW7       30.58F
OGDEN          MOSUNNY   62  29  28 N6        30.57F
SALT LAKE CITY PTSUNNY   65  36  34 N14       30.57F
TOOELE VALLEY  SUNNY     61  36  39 N9        30.58F
WENDOVER       SUNNY     63  40  42 S6        30.57F
HEBER CITY       N/A     64  27  24 SW8G16    30.54S
WEST JORDAN    SUNNY     60  36  41 NW13      30.58F

$$

UTZ011>015-024>027-232300-

CENTRAL/NORTHEAST UTAH

CITY           SKY/WX    TMP DP  RH WIND       PRES   REMARKS
PROVO AIRPORT  MOSUNNY   61  37  41 NW12      30.57F
MOAB/CANYONLAN SUNNY     71  29  21 VRB6      30.39S
DELTA          SUNNY     64  34  32 NW8       30.55F
PRICE          SUNNY    N/A N/A N/A NW25G32   30.47F
ROOSEVELT      SUNNY     70  28  21 E6        30.45F
VERNAL         SUNNY     67  27  22 SW6       30.44F

$$

UTZ013>016-019>022-027-232300-

SOUTHERN UTAH

CITY           SKY/WX    TMP DP  RH WIND       PRES   REMARKS
BRYCE CANYON   SUNNY     67  29  24 N15G21    30.55F
CEDAR CITY     SUNNY     69  34  27 N18G25    30.49S
MILFORD        SUNNY     67  37  33 N17G25    30.51F
ST GEORGE      CLEAR     82  31  15 SW5       30.30F
HANKSVILLE     SUNNY     73  27  17 E6        30.41F
BLANDING         N/A     72  22  15 W12G17    30.49S

$$

REGIONAL REPORTS     COLORADO/ARIZONA

CITY           SKY/WX    TMP DP  RH WIND       PRES   REMARKS
CRAIG, CO      SUNNY     61  17  18 NW16G22   30.49R
GRAND JUNCTION SUNNY     68  32  26 NW3       30.40F
RIFLE, CO      SUNNY     69  25  19 NW14G22   30.42S
MONTROSE, CO   SUNNY     65  28  24 VRB6      30.46S
CORTEZ, CO     SUNNY     72  24  16 NW15      30.39F
COLORADO CITY    N/A     81  32  17 NW7       30.41F
PAGE, AZ       SUNNY     74  26  16 NE6       30.37F
GRAND CANYON   SUNNY     73  20  13 E9        30.48F
KINGMAN, AZ    SUNNY     87  28  12 N17G23    30.28F
FLAGSTAFF, AZ  SUNNY     71  18  13 E14       30.48F

$$

REGIONAL REPORTS    NEVADA/IDAHO/WYOMING

CITY           SKY/WX    TMP DP  RH WIND       PRES   REMARKS
LAS VEGAS, NV  SUNNY     90  34  13 N10       30.24F
ELY, NY        LGT RAIN  67  34  29 N15       30.56F
ELKO, NV       SUNNY     70  34  26 CALM      30.57F
POCATELLO, ID  CLOUDY    56  37  49 SW15      30.62F
BURLEY, ID     MOSUNNY   57  36  45 W10G18    30.61R
FORT BRIDGER,    N/A     54  20  26 W18G28    30.61R
EVANSTON, WY   SUNNY     55  16  21 NW12      30.61F
ROCK SPRINGS,  SUNNY     55  16  21 W20G28    30.52S
KEMMERER, WY   CLOUDY    50  19  29 W22G32    30.59S

$$




USA.gov is the U.S. government's official web portal to all federal, state and local government web resources and services.